K5HAS Weather Reports


Display with metric or nautical units.
time (UTC)temp
F
wind
direction
speed
MPH
gust
MPH
rain 1hr
in
rain 24hr
in
rain mn
in
humidity
%
barometer
mb
20260901170857 91 357 4.0 3.0 0.00 0.00 0.00 69 1013.6
20260901165840 91 24 4.0 7.0 0.00 0.00 0.00 69 1013.9
20260901165337 91 342 4.0 7.0 0.00 0.00 0.00 71 1013.9
20260901165059 91 295 3.0 7.0 0.00 0.00 0.00 70 1013.9
20260901164335 90 329 3.0 7.0 0.00 0.00 0.00 71 1014.3
20260901164043 90 336 4.0 7.0 0.00 0.00 0.00 71 1014.3
20260901163315 90 306 4.0 7.0 0.00 0.00 0.00 72 1014.3
20260901162820 89 47 4.0 7.0 0.00 0.00 0.00 76 1014.5
20260901162315 89 11 4.0 7.0 0.00 0.00 0.00 75 1014.5
20260901161813 89 335 3.0 6.0 0.00 0.00 0.00 77 1014.5
20260901161321 88 13 3.0 6.0 0.00 0.00 0.00 77 1014.5
20260901160815 88 319 3.0 7.0 0.00 0.00 0.00 78 1014.5
20260901160320 88 301 2.0 7.0 0.00 0.00 0.00 77 1014.5
20260901155813 89 336 3.0 7.0 0.00 0.00 0.00 77 1014.5
20260901155301 89 308 2.0 8.0 0.00 0.00 0.00 79 1014.5
20260901154757 88 324 3.0 8.0 0.00 0.00 0.00 79 1014.5
20260901154254 88 341 4.0 8.0 0.00 0.00 0.00 79 1014.5
20260901153752 88 342 4.0 8.0 0.00 0.00 0.00 79 1014.5
20260901153252 89 348 4.0 7.0 0.00 0.00 0.00 79 1014.5
20260901153023 89 327 4.0 8.0 0.00 0.00 0.00 81 1014.3
20260901152251 88 345 4.0 8.0 0.00 0.00 0.00 80 1014.3
20260901151752 88 328 5.0 8.0 0.00 0.00 0.00 81 1014.3
20260901151251 88 355 5.0 8.0 0.00 0.00 0.00 82 1014.2
20260901150753 87 12 4.0 8.0 0.00 0.00 0.00 81 1014.2
20260901150251 87 353 3.0 6.0 0.00 0.00 0.00 83 1014.2
20260901150009 87 347 3.0 6.0 0.00 0.00 0.00 82 1014.1
20260901145253 86 328 3.0 6.0 0.00 0.00 0.00 84 1014.1
20260901145010 85 357 3.0 6.0 0.00 0.00 0.00 84 1014.1
20260901144246 85 347 3.0 5.0 0.00 0.00 0.00 85 1014.2
20260901143743 85 6 3.0 5.0 0.00 0.00 0.00 84 1014.2
20260901143509 85 358 3.0 6.0 0.00 0.00 0.00 84 1014.2
20260901143006 84 344 3.0 6.0 0.00 0.00 0.00 86 1014.3
20260901142241 84 351 2.0 5.0 0.00 0.00 0.00 86 1014.3
20260901141743 84 25 2.0 5.0 0.00 0.00 0.00 86 1014.3
20260901141243 83 10 3.0 5.0 0.00 0.00 0.00 86 1014.4
20260901140740 83 8 3.0 5.0 0.00 0.00 0.00 86 1014.4
20260901140240 83 34 3.0 5.0 0.00 0.00 0.00 87 1014.4
20260901135740 83 43 2.0 5.0 0.00 0.00 0.00 87 1014.2
20260901135239 82 29 3.0 5.0 0.00 0.00 0.00 88 1014.2
20260901134729 82 38 3.0 5.0 0.00 0.00 0.00 88 1014.2
20260901133721 81 24 3.0 5.0 0.00 0.00 0.00 88 1014.0
20260901133429 81 24 2.0 5.0 0.00 0.00 0.00 89 1014.0
20260901132701 80 30 2.0 4.0 0.00 0.00 0.00 89 1013.9
20260901132151 80 31 3.0 5.0 0.00 0.00 0.00 90 1013.9
20260901131652 79 26 3.0 5.0 0.00 0.00 0.00 90 1013.9
20260901130650 79 30 3.0 5.0 0.00 0.00 0.00 91 1013.6
20260901130150 78 20 3.0 5.0 0.00 0.00 0.00 91 1013.6
20260901125649 78 90 3.0 5.0 0.00 0.00 0.00 92 1013.5
20260901125147 77 13 3.0 5.0 0.00 0.00 0.00 92 1013.5
20260901124148 77 14 2.0 5.0 0.00 0.00 0.00 92 1013.5
20260901123649 76 23 3.0 5.0 0.00 0.00 0.00 91 1013.5
20260901123145 76 16 3.0 5.0 0.00 0.00 0.00 91 1013.5
20260901122646 76 20 3.0 5.0 0.00 0.00 0.00 92 1013.3
20260901122146 76 24 3.0 5.0 0.00 0.00 0.00 91 1013.3
20260901121643 76 20 3.0 5.0 0.00 0.00 0.00 92 1013.3
20260901121143 76 22 3.0 5.0 0.00 0.00 0.00 92 1013.1
20260901120643 76 26 3.0 6.0 0.00 0.00 0.00 92 1013.1
20260901120143 76 23 4.0 6.0 0.00 0.00 0.00 92 1013.1
20260901115644 76 21 4.0 6.0 0.00 0.00 0.00 91 1012.9
20260901115406 76 30 3.0 6.0 0.00 0.00 0.00 91 1012.9
20260901114642 77 43 3.0 6.0 0.00 0.00 0.00 91 1012.9
20260901114144 77 58 3.0 4.0 0.00 0.00 0.00 92 1012.9
20260901113143 76 59 3.0 4.0 0.00 0.00 0.00 91 1012.9
20260901112642 77 59 2.0 3.0 0.00 0.00 0.00 91 1012.7
20260901112143 77 59 2.0 3.0 0.00 0.00 0.00 92 1012.7
20260901111644 76 59 2.0 3.0 0.00 0.00 0.00 92 1012.7
20260901111141 76 59 1.0 3.0 0.00 0.00 0.00 92 1012.6
20260901110641 76 59 1.0 3.0 0.00 0.00 0.00 92 1012.6
20260901110400 76 59 1.0 3.0 0.00 0.00 0.00 91 1012.6
20260901105851 76 59 2.0 3.0 0.00 0.00 0.00 91 1012.7
20260901105121 76 59 2.0 3.0 0.00 0.00 0.00 91 1012.7
20260901104833 76 59 2.0 3.0 0.00 0.00 0.00 91 1012.7
20260901104058 76 59 1.0 3.0 0.00 0.00 0.00 91 1012.8
20260901103552 76 59 2.0 3.0 0.00 0.00 0.00 91 1012.8
20260901103042 76 59 2.0 3.0 0.00 0.00 0.00 91 1012.8
20260901102531 76 59 1.0 4.0 0.00 0.00 0.00 91 1012.8
20260901102025 76 59 1.0 4.0 0.00 0.00 0.00 91 1012.8
20260901101738 77 59 1.0 3.0 0.00 0.00 0.00 91 1012.7
20260901101003 77 60 0.0 1.0 0.00 0.00 0.00 91 1012.7
20260901100447 76 60 0.0 2.0 0.00 0.00 0.00 91 1012.7
20260901095938 76 60 1.0 2.0 0.00 0.00 0.00 90 1012.8
20260901095427 76 60 1.0 2.0 0.00 0.00 0.00 90 1012.8
20260901094923 76 60 1.0 3.0 0.00 0.00 0.00 90 1012.8
20260901094423 76 60 1.0 3.0 0.00 0.00 0.00 90 1012.9
20260901093923 76 60 1.0 3.0 0.00 0.00 0.00 90 1012.9
20260901093422 77 60 2.0 3.0 0.00 0.00 0.00 90 1012.9
20260901092924 77 60 2.0 3.0 0.00 0.00 0.00 90 1012.9
20260901092421 77 60 1.0 3.0 0.00 0.00 0.00 90 1012.9
20260901091920 77 61 0.0 2.0 0.00 0.00 0.00 90 1012.9
20260901091418 77 61 0.0 0.0 0.00 0.00 0.00 90 1012.9
20260901090915 77 61 0.0 0.0 0.00 0.00 0.00 90 1012.9
20260901090413 77 61 0.0 0.0 0.00 0.00 0.00 90 1012.9
20260901085912 77 61 0.0 0.0 0.00 0.00 0.00 90 1012.9
20260901085409 77 61 0.0 0.0 0.00 0.00 0.00 90 1012.9
20260901085114 77 61 0.0 0.0 0.00 0.00 0.00 89 1012.9
20260901084346 77 61 0.0 0.0 0.00 0.00 0.00 89 1012.9
20260901083839 77 61 0.0 0.0 0.00 0.00 0.00 89 1012.9
20260901083331 77 61 0.0 2.0 0.00 0.00 0.00 89 1012.9
20260901082831 77 61 0.0 2.0 0.00 0.00 0.00 89 1013.0
20260901082331 77 61 0.0 2.0 0.00 0.00 0.00 89 1013.0
20260901081831 77 61 1.0 2.0 0.00 0.00 0.00 89 1013.0
20260901081329 78 61 1.0 4.0 0.00 0.00 0.00 89 1012.9
20260901080831 78 61 2.0 4.0 0.00 0.00 0.00 88 1012.9
20260901080327 78 65 1.0 4.0 0.00 0.00 0.00 88 1012.9
20260901075824 78 169 0.0 4.0 0.00 0.00 0.00 89 1012.8
20260901075324 79 172 1.0 4.0 0.00 0.00 0.00 89 1012.8
20260901074825 79 172 2.0 5.0 0.00 0.00 0.00 89 1012.8
20260901074323 79 171 1.0 5.0 0.00 0.00 0.00 89 1012.8
20260901073811 79 168 1.0 3.0 0.00 0.00 0.00 90 1012.8
20260901073304 78 170 2.0 4.0 0.00 0.00 0.00 89 1012.8
20260901072803 78 166 2.0 4.0 0.00 0.00 0.00 89 1012.8
20260901072530 79 165 2.0 4.0 0.00 0.00 0.00 89 1012.8
20260901071804 79 165 2.0 5.0 0.00 0.00 0.00 89 1012.8
20260901071304 79 168 2.0 5.0 0.00 0.00 0.00 90 1012.9
20260901071029 79 172 2.0 5.0 0.00 0.00 0.00 90 1012.9
20260901070303 78 172 2.0 5.0 0.00 0.00 0.00 90 1012.9
20260901065751 78 171 3.0 6.0 0.00 0.00 0.00 90 1012.8
20260901065241 78 166 3.0 6.0 0.00 0.00 0.00 89 1012.8
20260901065001 78 162 3.0 5.0 0.00 0.00 0.00 89 1012.8
20260901064237 78 168 3.0 4.0 0.00 0.00 0.00 89 1013.0
20260901063736 78 154 3.0 4.0 0.00 0.00 0.00 88 1013.0
20260901063234 78 149 3.0 5.0 0.00 0.00 0.00 88 1013.0
20260901062732 78 148 3.0 5.0 0.00 0.00 0.00 88 1013.3
20260901062230 78 143 3.0 5.0 0.00 0.00 0.00 88 1013.3
20260901061730 78 137 3.0 4.0 0.00 0.00 0.00 88 1013.3
20260901061229 78 143 3.0 4.0 0.00 0.00 0.00 88 1013.0
20260901060728 78 143 3.0 4.0 0.00 0.00 0.00 88 1013.0
20260901060225 78 143 3.0 3.0 0.00 0.00 0.00 88 1013.0
20260901055942 78 143 2.0 3.0 0.00 0.00 0.00 88 1013.0
20260901055218 79 143 2.0 3.0 0.00 0.00 0.00 88 1013.0
20260901054713 79 143 3.0 3.0 0.00 0.00 0.00 88 1013.0
20260901054213 79 143 2.0 4.0 0.00 0.00 0.00 88 1012.9
20260901053710 79 143 2.0 4.0 0.00 0.00 0.00 88 1012.9
20260901053439 79 143 2.0 4.0 0.00 0.00 0.00 88 1012.9
20260901052711 79 145 2.0 4.0 0.00 0.00 0.00 88 1012.8
20260901052208 79 144 2.0 4.0 0.00 0.00 0.00 88 1012.8
20260901051707 79 143 2.0 4.0 0.00 0.00 0.00 88 1012.8
20260901051207 79 141 2.0 4.0 0.00 0.00 0.00 88 1012.8
20260901050707 79 124 1.0 3.0 0.00 0.00 0.00 88 1012.8
20260901050204 78 121 1.0 3.0 0.00 0.00 0.00 88 1012.8
20260901045701 78 121 2.0 3.0 0.00 0.00 0.00 88 1012.9
20260901045201 79 121 2.0 3.0 0.00 0.00 0.00 88 1012.9
20260901044656 79 119 1.0 3.0 0.00 0.00 0.00 88 1012.9
20260901044150 79 118 1.0 2.0 0.00 0.00 0.00 88 1013.0
20260901043640 79 118 0.0 2.0 0.00 0.00 0.00 87 1013.0
20260901043130 79 118 0.0 1.0 0.00 0.00 0.00 87 1013.0
20260901042859 80 118 0.0 0.0 0.00 0.00 0.00 87 1013.3
20260901042114 80 118 0.0 0.0 0.00 0.00 0.00 87 1013.3
20260901041604 80 118 0.0 1.0 0.00 0.00 0.00 87 1013.3
20260901041323 80 118 1.0 3.0 0.00 0.00 0.00 86 1013.1
20260901040544 80 118 1.0 3.0 0.00 0.00 0.00 86 1013.1
20260901040036 80 118 2.0 3.0 0.00 0.00 0.00 86 1013.1
20260901035530 80 118 2.0 3.0 0.00 0.00 0.00 86 1013.0
20260901035023 80 118 2.0 3.0 0.00 0.00 0.00 86 1013.0
20260901034513 80 118 1.0 3.0 0.00 0.00 0.00 86 1013.0
20260901034008 80 118 1.0 4.0 0.00 0.00 0.00 86 1013.0
20260901033502 80 118 1.0 4.0 0.00 0.00 0.00 85 1013.0
20260901032951 80 118 2.0 4.0 0.00 0.00 0.00 85 1012.9
20260901032442 80 118 3.0 5.0 0.00 0.00 0.00 85 1012.9
20260901031931 80 117 4.0 5.0 0.00 0.00 0.00 86 1012.9
20260901031650 80 126 3.0 5.0 0.00 0.00 0.00 85 1012.8
20260901030912 80 130 3.0 4.0 0.00 0.00 0.00 86 1012.8
20260901030401 80 149 2.0 4.0 0.00 0.00 0.00 85 1012.8
20260901025401 81 149 2.0 4.0 0.00 0.00 0.00 86 1012.5
20260901025124 81 149 3.0 5.0 0.00 0.00 0.00 86 1012.5
20260901024359 80 151 3.0 5.0 0.00 0.00 0.00 86 1012.3
20260901023852 81 153 3.0 5.0 0.00 0.00 0.00 86 1012.3
20260901023352 81 155 3.0 7.0 0.00 0.00 0.00 85 1012.3
20260901022852 81 151 4.0 7.0 0.00 0.00 0.00 85 1012.0
20260901022353 81 160 4.0 7.0 0.00 0.00 0.00 85 1012.0
20260901021852 81 165 4.0 5.0 0.00 0.00 0.00 84 1012.0
20260901021354 82 160 4.0 5.0 0.00 0.00 0.00 84 1011.9
20260901020853 82 159 4.0 6.0 0.00 0.00 0.00 84 1011.9
20260901020348 82 156 4.0 8.0 0.00 0.00 0.00 83 1011.9
20260901015841 82 144 4.0 9.0 0.00 0.00 0.00 83 1011.5
20260901015336 82 147 4.0 9.0 0.00 0.00 0.00 83 1011.5
20260901014835 83 146 5.0 9.0 0.00 0.00 0.00 82 1011.5
20260901014331 83 157 4.0 9.0 0.00 0.00 0.00 81 1011.5
20260901013831 83 90 4.0 9.0 0.00 0.00 0.00 81 1011.5
20260901013331 84 131 5.0 9.0 0.00 0.00 0.00 80 1011.5
20260901012826 84 90 5.0 8.0 0.00 0.00 0.00 80 1011.5
20260901012326 85 90 6.0 9.0 0.00 0.00 0.00 79 1011.5
20260901011827 85 141 6.0 13.0 0.00 0.00 0.00 79 1011.5
20260901011327 85 127 6.0 13.0 0.00 0.00 0.00 78 1011.7
20260901010830 85 145 7.0 13.0 0.00 0.00 0.00 78 1011.7
20260901010316 86 132 8.0 15.0 0.00 0.00 0.00 77 1011.7
20260901005816 86 116 8.0 15.0 0.00 0.00 0.00 77 1011.7
20260901005319 86 131 9.0 15.0 0.00 0.00 0.00 76 1011.7
20260901004816 87 119 10.0 15.0 0.00 0.00 0.00 76 1011.7
20260901004539 87 101 9.0 18.0 0.00 0.00 0.00 76 1011.6
20260901004052 87 110 10.0 18.0 0.00 0.00 0.00 75 1011.6
20260901003315 87 132 11.0 18.0 0.00 0.00 0.00 75 1011.6
20260901002815 88 118 11.0 18.0 0.00 0.00 0.00 75 1011.4
20260901002305 88 102 10.0 17.0 0.00 0.00 0.00 74 1011.4
20260901001803 88 140 9.0 13.0 0.00 0.00 0.00 75 1011.4
20260901001302 88 145 9.0 14.0 0.00 0.00 0.00 75 1011.4
20260901000802 88 90 9.0 15.0 0.00 0.00 0.00 75 1011.4
20260901000300 88 157 9.0 17.0 0.00 0.00 0.00 75 1011.4
20260831235800 88 167 10.0 17.0 0.00 0.00 0.00 75 1011.4
20260831235301 88 145 10.0 16.0 0.00 0.00 0.00 75 1011.4
20260831234801 89 176 10.0 17.0 0.00 0.00 0.00 75 1011.4
20260831234301 89 137 10.0 17.0 0.00 0.00 0.00 74 1011.3
20260831233801 89 90 10.0 17.0 0.00 0.00 0.00 74 1011.3
20260831233254 90 90 10.0 17.0 0.00 0.00 0.00 72 1011.3
20260831232755 91 115 10.0 17.0 0.00 0.00 0.00 71 1011.3
20260831232523 92 90 10.0 17.0 0.00 0.00 0.00 69 1011.3
20260831231758 92 90 9.0 16.0 0.00 0.00 0.00 68 1011.3
20260831230752 93 141 8.0 16.0 0.00 0.00 0.00 63 1011.3
20260831230247 93 137 9.0 16.0 0.00 0.00 0.00 60 1011.3
20260831225755 94 90 9.0 15.0 0.00 0.00 0.00 58 1011.2
20260831225248 94 131 10.0 16.0 0.00 0.00 0.00 57 1011.2
20260831224748 94 90 10.0 16.0 0.00 0.00 0.00 57 1011.2
20260831224249 95 122 9.0 16.0 0.00 0.00 0.00 56 1011.3
20260831223749 95 128 10.0 16.0 0.00 0.00 0.00 56 1011.3
20260831223242 95 90 10.0 19.0 0.00 0.00 0.00 54 1011.3
20260831222742 95 133 11.0 19.0 0.00 0.00 0.00 54 1011.2
20260831222459 94 101 12.0 19.0 0.00 0.00 0.00 58 1011.2
20260831221738 94 135 11.0 19.0 0.00 0.00 0.00 59 1011.2
20260831221236 95 148 11.0 18.0 0.00 0.00 0.00 61 1011.2
20260831220735 95 90 11.0 20.0 0.00 0.00 0.00 62 1011.2
20260831220235 95 137 12.0 20.0 0.00 0.00 0.00 63 1011.2
20260831215735 95 137 13.0 20.0 0.00 0.00 0.00 63 1011.2
20260831215232 95 130 13.0 20.0 0.00 0.00 0.00 64 1011.2
20260831214731 96 85 12.0 20.0 0.00 0.00 0.00 62 1011.2
20260831214459 96 128 10.0 20.0 0.00 0.00 0.00 60 1011.2
20260831213732 96 90 10.0 17.0 0.00 0.00 0.00 57 1011.2
20260831213227 96 141 9.0 17.0 0.00 0.00 0.00 56 1011.2
20260831212959 97 120 9.0 17.0 0.00 0.00 0.00 56 1011.2
20260831212227 97 126 9.0 17.0 0.00 0.00 0.00 56 1011.2
20260831211727 97 126 9.0 16.0 0.00 0.00 0.00 56 1011.2
20260831211232 97 90 9.0 16.0 0.00 0.00 0.00 59 1011.3
20260831210728 97 90 8.0 16.0 0.00 0.00 0.00 59 1011.3
20260831210225 97 130 8.0 16.0 0.00 0.00 0.00 59 1011.3
20260831205955 97 90 7.0 13.0 0.00 0.00 0.00 54 1011.8
20260831205451 97 146 7.0 12.0 0.00 0.00 0.00 54 1011.8
20260831204725 96 109 7.0 13.0 0.00 0.00 0.00 55 1011.8
20260831204226 95 154 7.0 13.0 0.00 0.00 0.00 56 1011.9
20260831203725 95 139 7.0 11.0 0.00 0.00 0.00 57 1011.9
20260831203443 96 115 6.0 14.0 0.00 0.00 0.00 55 1011.9
20260831202725 97 193 7.0 14.0 0.00 0.00 0.00 53 1012.2
20260831202225 97 90 7.0 15.0 0.00 0.00 0.00 53 1012.2
20260831201724 97 175 7.0 15.0 0.00 0.00 0.00 54 1012.2
20260831201226 96 150 7.0 13.0 0.00 0.00 0.00 56 1012.4
20260831200727 96 90 7.0 13.0 0.00 0.00 0.00 56 1012.4
20260831200225 95 147 7.0 12.0 0.00 0.00 0.00 58 1012.4
20260831195724 96 208 7.0 12.0 0.00 0.00 0.00 61 1012.6
20260831195221 96 215 7.0 13.0 0.00 0.00 0.00 58 1012.6
20260831194720 96 175 6.0 13.0 0.00 0.00 0.00 57 1012.6
20260831194220 96 90 6.0 14.0 0.00 0.00 0.00 59 1012.9
20260831193945 95 157 7.0 14.0 0.00 0.00 0.00 59 1012.9
20260831193219 95 115 9.0 14.0 0.00 0.00 0.00 59 1012.9
20260831192724 94 165 10.0 14.0 0.00 0.00 0.00 61 1013.0
20260831192216 94 90 9.0 14.0 0.00 0.00 0.00 62 1013.0
20260831191941 95 134 9.0 15.0 0.00 0.00 0.00 62 1013.0
20260831191430 94 134 10.0 19.0 0.00 0.00 0.00 63 1013.5
20260831190659 94 107 11.0 19.0 0.00 0.00 0.00 64 1013.5
20260831190153 94 125 12.0 19.0 0.00 0.00 0.00 64 1013.5
20260831185644 95 139 12.0 19.0 0.00 0.00 0.00 61 1013.9
20260831185134 94 139 13.0 19.0 0.00 0.00 0.00 65 1013.9
20260831184620 93 127 13.0 19.0 0.00 0.00 0.00 65 1013.9
20260831184111 94 105 10.0 18.0 0.00 0.00 0.00 65 1013.9
20260831183607 95 134 7.0 16.0 0.00 0.00 0.00 64 1013.9
20260831183101 95 174 6.0 10.0 0.00 0.00 0.00 64 1013.9
20260831182557 94 213 5.0 10.0 0.00 0.00 0.00 65 1014.0
20260831182047 92 218 5.0 10.0 0.00 0.00 0.00 67 1014.0
20260831181532 92 189 5.0 10.0 0.00 0.00 0.00 68 1014.0
20260831181026 92 172 5.0 9.0 0.00 0.00 0.00 70 1014.1
20260831180516 92 201 6.0 9.0 0.00 0.00 0.00 68 1014.1
20260831180006 92 217 7.0 9.0 0.00 0.00 0.00 67 1014.3
20260831175719 93 218 7.0 9.0 0.00 0.00 0.00 66 1014.3
20260831174950 93 225 6.0 9.0 0.00 0.00 0.00 66 1014.3
20260831174456 94 221 6.0 9.0 0.00 0.00 0.00 67 1014.4
20260831173951 94 214 6.0 8.0 0.00 0.00 0.00 66 1014.4
20260831173455 94 238 6.0 9.0 0.00 0.00 0.00 67 1014.4
20260831172951 93 202 6.0 9.0 0.00 0.00 0.00 68 1014.5
20260831172452 93 220 5.0 8.0 0.00 0.00 0.00 67 1014.5
20260831171946 93 234 5.0 8.0 0.00 0.00 0.00 67 1014.5
20260831171449 93 236 5.0 8.0 0.00 0.00 0.00 68 1014.5
20260831171216 92 225 5.0 8.0 0.00 0.00 0.00 70 1014.5